Flag for U.S.A. Weather past 2 weeks in Breckenridge, Colorado, U.S.A.

Now
27 °F

Scattered clouds.


Feels Like: 21 °F
Forecast: 22 / 42 °F
Wind: 5 mph from Southeast

Location: Copper Mountain - Red Cliff Pass

Current Time: Jan 29, 2015 at 9:32:49 AM

Latest Report: Jan 29, 2015 at 9:15 AM


Visibility: 10 mi

Pressure: 30.45 "Hg

Humidity: 59%

Dew point: 14 °F

Location of BreckenridgeLocation

Historic Weather in Breckenridge — Graph

°F

Breckenridge temperature yesterday

Maximum temperature yesterday: 28 °F (at 12:35 AM)
Minimum temperature yesterday: 23 °F (at 6:35 AM)
Average temperature yesterday: 25 °F

Past Weeks' High & Low Weather Summary

 TemperatureHumidityPressure
High45 °F (Jan 26, 1:35 PM)86% (Jan 19, 8:35 PM)30.62 "Hg (Jan 19, 8:35 PM)
Low1 °F (Jan 21, 9:55 PM)3% (Jan 18, 1:15 AM)29.95 "Hg (Jan 21, 1:15 PM)
Average24 °F53%30.29 "Hg
* Reported Jan 14 8:15 AM — Jan 29 8:35 AM, Breckenridge, Weather by CustomWeather, © 2014

Note: Actual official high and low records may vary slightly from our data, if they occured in-between our weather recording intervals... More about our weather records

Advertising

Breckenridge weather history for previous 24 hours

 ConditionsComfort  
Time TempWeatherWind HumidityBarometerVisibility
8:35 AM
Jan 29
27 °FPartly sunny.7 mph64%30.45 "Hg10 mi
8:15 AM25 °FPartly sunny.7 mph74%30.45 "Hg10 mi
7:55 AM25 °FOvercast.6 mph74%30.44 "Hg10 mi
7:35 AM23 °FOvercast.No wind68%30.44 "Hg10 mi
7:15 AM23 °FOvercast.7 mph80%30.44 "Hg10 mi
6:55 AM23 °FMostly cloudy.No wind80%30.43 "Hg10 mi
6:35 AM23 °FOvercast.3 mph80%30.43 "Hg10 mi
6:15 AM23 °FPassing clouds.9 mph80%30.42 "Hg10 mi
5:55 AM23 °FLight snow. Overcast.5 mph80%30.42 "Hg2 mi
5:35 AM23 °FMostly cloudy.6 mph80%30.42 "Hg2 mi
5:15 AM23 °FOvercast.7 mph80%30.42 "Hg10 mi
4:55 AM23 °FLight snow. Overcast.3 mph80%30.41 "Hg7 mi
4:35 AM23 °FOvercast.8 mph80%30.41 "Hg10 mi
4:15 AM25 °FOvercast.No wind74%30.40 "Hg10 mi
3:55 AM23 °FOvercast.No wind80%30.40 "Hg10 mi
3:35 AM23 °FLight snow. Overcast.3 mph80%30.40 "Hg10 mi
3:15 AM23 °FLight snow. Overcast.7 mph80%30.40 "Hg7 mi
2:55 AM23 °FOvercast.No wind74%30.40 "Hg10 mi
2:35 AM25 °FLight snow. Overcast.6 mph63%30.41 "Hg10 mi
2:15 AM25 °FLight snow. Overcast.No wind63%30.40 "Hg7 mi
1:55 AM25 °FLight snow. Overcast.No wind69%30.40 "Hg10 mi
1:35 AM25 °FLight snow. Overcast.5 mph63%30.39 "Hg10 mi
1:15 AM25 °FLight snow. Overcast.3 mph74%30.38 "Hg5 mi
12:55 AM23 °FLight snow. Overcast.10 mph74%30.38 "Hg10 mi
12:35 AM23 °FOvercast.No wind80%30.38 "Hg10 mi
12:15 AM23 °FLight snow. Overcast.No wind80%30.38 "Hg7 mi
11:55 PM
Jan 28
25 °FLight snow. Overcast.3 mph80%30.38 "Hg7 mi
11:35 PM23 °FOvercast.10 mph86%30.38 "Hg10 mi
11:15 PM25 °FLight snow. Overcast.7 mph80%30.38 "Hg7 mi
10:55 PM23 °FLight snow. Mostly cloudy.5 mph80%30.38 "Hg5 mi
10:35 PM23 °FLight snow. Mostly cloudy.9 mph86%30.38 "Hg10 mi
10:15 PM25 °FLight snow. Mostly cloudy.6 mph80%30.38 "Hg10 mi
9:55 PM23 °FMostly cloudy.10 mph80%30.37 "Hg10 mi
9:35 PM23 °FOvercast.12 mph80%30.36 "Hg10 mi
9:15 PM23 °FPassing clouds.9 mph80%30.36 "Hg10 mi
8:55 PM23 °FPassing clouds.5 mph80%30.36 "Hg10 mi
8:35 PM23 °FOvercast.No wind80%30.36 "Hg10 mi
8:15 PM23 °FPassing clouds.10 mph80%30.36 "Hg10 mi
7:55 PM23 °FPassing clouds.9 mph80%30.36 "Hg10 mi
7:35 PM25 °FPassing clouds.15 mph80%30.35 "Hg10 mi
7:15 PM25 °FMostly cloudy.13 mph80%30.35 "Hg10 mi
6:55 PM25 °FMostly cloudy.13 mph80%30.35 "Hg10 mi
6:35 PM25 °FOvercast.10 mph80%30.34 "Hg10 mi
6:15 PM25 °FPassing clouds.12 mph74%30.34 "Hg10 mi
5:55 PM25 °FPassing clouds.15 mph74%30.33 "Hg10 mi
5:35 PM25 °FPassing clouds.22 mph69%30.32 "Hg10 mi
5:15 PM25 °FScattered clouds.21 mph69%30.31 "Hg10 mi
4:55 PM27 °FBroken clouds.20 mph64%30.31 "Hg10 mi
4:35 PM27 °FMore clouds than sun.22 mph59%30.31 "Hg10 mi
4:15 PM28 °FMostly cloudy.25 mph55%30.30 "Hg10 mi
3:55 PM28 °FBroken clouds.24 mph55%30.29 "Hg10 mi
3:35 PM28 °FMore clouds than sun.18 mph55%30.31 "Hg10 mi
3:15 PM28 °FMostly cloudy.18 mph55%30.31 "Hg10 mi
2:35 PM28 °FMostly cloudy.25 mph55%30.29 "Hg7 mi
2:15 PM28 °FPartly sunny.29 mph59%30.26 "Hg7 mi
1:55 PM28 °FPartly sunny.37 mph55%30.25 "Hg2 mi
1:35 PM28 °FBroken clouds.33 mph55%30.25 "Hg7 mi
1:15 PM27 °FCloudy.28 mph69%30.26 "Hg3 mi
12:55 PM27 °FMostly cloudy.22 mph74%30.27 "Hg3 mi
12:35 PM27 °FLight snow. Low clouds.28 mph69%30.27 "Hg1 mi
12:15 PM27 °FLight snow. Overcast.30 mph69%30.27 "Hg2 mi
11:55 AM27 °FLight snow. Cloudy.22 mph69%30.28 "Hg2 mi
11:35 AM27 °FLight snow. Mostly cloudy.21 mph69%30.29 "Hg5 mi
11:15 AM27 °FLight snow. Mostly cloudy.24 mph69%30.29 "Hg5 mi
10:55 AM28 °FLight snow. Mostly cloudy.30 mph64%30.27 "Hg7 mi
10:35 AM27 °FLight snow. Mostly cloudy.29 mph69%30.28 "Hg5 mi
10:15 AM25 °FMostly cloudy.26 mph80%30.28 "Hg10 mi
9:55 AM25 °FMostly cloudy.14 mph80%30.28 "Hg10 mi
9:35 AM25 °FMore clouds than sun.16 mph74%30.28 "Hg10 mi
9:15 AM25 °FOvercast.10 mph74%30.27 "Hg10 mi
Weather by CustomWeather, © 2014

See weather overviewHow to use our weather pages